Weather History for Danbury, CT

Change the Weather History Date:

Friday, November 14, 2014

  Actual Average Record
Temperature  
Mean Temperature 34 °F -  
Max Temperature 39 °F 49 °F 73 °F (1993)
Min Temperature 26 °F 33 °F 20 °F (1971)
Degree Days  
Heating Degree Days 32    
Moisture  
Dew Point 25 °F    
Average Humidity 70    
Maximum Humidity 89    
Minimum Humidity 39    
Precipitation  
Precipitation 0.05 in - - ()
Sea Level Pressure  
Sea Level Pressure 30.02 in    
Wind  
Wind Speed 3 mph (NW)    
Max Wind Speed 12 mph    
Max Gust Speed 17 mph    
Visibility 8 miles    
Events Snow    
Averages and records for this station are not official NWS values.
T = Trace of Precipitation, MM = Missing Value Source: NWS Daily Summary

Daily Weather History Graph

Daily Weather History Graph

Search for Another Location

Airport:

Trip Planner

Search our weather history database for the weather conditions in past years. The results will help you decide how hot, cold, wet, or windy it might be!

Date:

Astronomy

Nov. 14, 2014 Rise Set
Actual Time 6:41 AM EST 4:35 PM EST
Civil Twilight 6:11 AM EST 5:04 PM EST
Nautical Twilight 5:38 AM EST 5:38 PM EST
Astronomical Twilight 5:05 AM EST 6:10 PM EST
Moon 11:47 PM EST (11/14) 12:30 PM EST (11/14)
Length of Visible Light 10h 53m
Length of Day
9h 54m
Waning Gibbous, 49% of the Moon is Illuminated
Nov 14
Waning Gibbous
Nov 22
New
Nov 29
First Quarter
Dec 6
Full
Dec 14
Last Quarter

Hourly Weather History & Observations

Time (EST) Temp. Windchill Dew Point Humidity Pressure Visibility Wind Dir Wind Speed Gust Speed Precip Events Conditions
12:09 AM 33.1 °F - 30.0 °F 89% 29.97 in 2.0 mi Calm Calm - 0.00 in Snow Light Snow
12:21 AM 33.1 °F - 30.0 °F 89% 29.97 in 1.5 mi Calm Calm - 0.01 in Snow Light Snow
12:34 AM 33.1 °F - 30.0 °F 89% 29.97 in 1.5 mi Calm Calm - 0.01 in Snow Light Snow
12:53 AM 33.1 °F 30.0 °F 30.0 °F 89% 29.96 in 1.8 mi NW 3.5 mph - 0.01 in Snow Light Snow
1:07 AM 33.1 °F - 30.0 °F 89% 29.96 in 2.0 mi Calm Calm - 0.00 in Snow Light Snow
1:22 AM 33.1 °F - 30.0 °F 89% 29.96 in 4.0 mi Calm Calm - 0.01 in Snow Light Snow
1:40 AM 33.1 °F - 30.0 °F 89% 29.96 in 7.0 mi Calm Calm - 0.01 in Snow Light Snow
1:53 AM 34.0 °F - 30.0 °F 85% 29.96 in 7.0 mi Calm Calm - 0.01 in Snow Light Snow
2:53 AM 34.0 °F 27.2 °F 28.9 °F 82% 29.96 in 8.0 mi North 8.1 mph - 0.01 in Snow Light Snow
3:03 AM 34.0 °F 28.0 °F 28.9 °F 82% 29.94 in 7.0 mi NNW 6.9 mph - 0.01 in Snow Light Snow
3:26 AM 34.0 °F 26.6 °F 28.0 °F 79% 29.95 in 6.0 mi North 9.2 mph - 0.01 in Snow Light Snow
3:43 AM 34.0 °F 28.8 °F 28.0 °F 79% 29.96 in 9.0 mi NNW 5.8 mph - 0.01 in   Overcast
3:53 AM 34.0 °F 28.0 °F 28.0 °F 79% 29.96 in 10.0 mi North 6.9 mph - 0.01 in   Overcast
4:53 AM 34.0 °F 31.0 °F 28.0 °F 79% 29.97 in 10.0 mi NNW 3.5 mph - 0.01 in   Overcast
5:53 AM 33.1 °F 28.7 °F 28.0 °F 82% 29.98 in 10.0 mi Variable 4.6 mph - N/A   Overcast
6:53 AM 33.1 °F 26.9 °F 27.0 °F 78% 29.99 in 10.0 mi Variable 6.9 mph - N/A   Overcast
7:53 AM 33.1 °F 27.7 °F 27.0 °F 78% 30.00 in 10.0 mi Variable 5.8 mph - N/A   Partly Cloudy
8:28 AM 34.0 °F 27.2 °F 27.0 °F 75% 30.01 in 10.0 mi NNW 8.1 mph - N/A   Mostly Cloudy
8:53 AM 34.0 °F 28.0 °F 27.0 °F 75% 30.02 in 10.0 mi WNW 6.9 mph - N/A   Scattered Clouds
9:53 AM 36.0 °F 29.6 °F 26.1 °F 67% 30.04 in 10.0 mi NW 8.1 mph - N/A   Scattered Clouds
10:45 AM 36.0 °F 29.6 °F 25.0 °F 64% 30.02 in 10.0 mi NNW 8.1 mph - N/A   Mostly Cloudy
10:53 AM 36.0 °F 29.0 °F 25.0 °F 64% 30.03 in 10.0 mi NW 9.2 mph - N/A   Overcast
11:28 AM 37.0 °F 32.4 °F 24.1 °F 59% 30.02 in 10.0 mi WNW 5.8 mph 16.1 mph N/A   Mostly Cloudy
11:53 AM 37.0 °F 32.4 °F 24.1 °F 59% 30.02 in 10.0 mi Variable 5.8 mph - N/A   Mostly Cloudy
12:53 PM 39.0 °F 32.8 °F 21.9 °F 50% 30.01 in 10.0 mi NW 9.2 mph - N/A   Mostly Cloudy
1:53 PM 39.9 °F 32.9 °F 18.0 °F 41% 30.01 in 10.0 mi West 11.5 mph 17.3 mph N/A   Overcast
2:53 PM 39.0 °F 34.8 °F 18.0 °F 43% 30.02 in 10.0 mi NW 5.8 mph - N/A   Clear
3:53 PM 39.0 °F 34.0 °F 16.0 °F 39% 30.03 in 10.0 mi NNW 6.9 mph - N/A   Clear
4:53 PM 37.0 °F 34.5 °F 14.0 °F 39% 30.05 in 10.0 mi WNW 3.5 mph - N/A   Partly Cloudy
5:53 PM 36.0 °F 33.3 °F 14.0 °F 41% 30.08 in 10.0 mi WNW 3.5 mph - N/A   Mostly Cloudy
6:53 PM 30.9 °F - 16.0 °F 54% 30.10 in 10.0 mi Calm Calm - N/A   Clear
7:53 PM 28.9 °F 23.9 °F 19.0 °F 67% 30.12 in 10.0 mi WSW 4.6 mph - N/A   Mostly Cloudy
8:53 PM 35.1 °F 31.0 °F 18.0 °F 50% 30.14 in 10.0 mi NNW 4.6 mph - N/A   Overcast
9:53 PM 33.1 °F - 19.0 °F 56% 30.15 in 10.0 mi Calm Calm - N/A   Partly Cloudy
10:53 PM 32.0 °F - 19.0 °F 59% 30.16 in 10.0 mi Calm Calm - N/A   Clear
11:53 PM 26.1 °F - 19.9 °F 78% 30.17 in 10.0 mi Calm Calm - N/A   Clear